Welcome to the New NWS' Forecast!
Most changes are behind the scenes, but click here for differences you might notice.

Regional Weather Roundup (RWR)

Issued by National Weather Service (NWS)

                            
000
ASUS42 KTBW 230917
RWRFL 
FLORIDA REGIONAL WEATHER ROUNDUP
NATIONAL WEATHER SERVICE TAMPA BAY RUSKIN FL
500 AM EDT SUN SEP 23 2018

NOTE: "FAIR" INDICATES FEW OR NO CLOUDS BELOW 12,000 FEET WITH NO
SIGNIFICANT WEATHER AND/OR OBSTRUCTIONS TO VISIBILITY.

FLZ001>010-012>015-112-114-115-231000-
PANHANDLE FLORIDA
  
CITY           SKY/WX    TMP DP  RH WIND       PRES   REMARKS
PENSACOLA      FAIR      77  74  90 NE5       29.95F                  
MILTON NAS     FAIR      70  70 100 NE3       29.97                   
CRESTVIEW      FAIR      70  68  93 CALM      29.98F                  
DUKE FIELD     FAIR      71  71  97 CALM      29.97S                  
VALPARAISO     CLEAR     75  71  86 NE3       29.95F                  
MARY ESTHER    FAIR      75  64  70 CALM      29.94F                  
PANAMA CITY    FAIR      72  69  90 NE3       29.96F                  
TYNDALL AFB    FAIR      74  71  91 NE3       29.96F                  
APALACHICOLA   FAIR      75  75 100 CALM      29.96F                  

STATION/POSITION SKY/WX   TEMP    WIND        PRES    WAVE   SWELL
                          AIR SEA DIR/SP/G            HT/PER HT/PER
                          (F)     (DEG/KT/KT) (MB)    (FT/S) (FT/S)
30.1N   87.6W              84     110/  8/ 10 1014.1
29.2N   88.2W                 86  130/ 10/ 14 1013.9F   2/ 5   2/ 9
28.8N   86.0W              80 86   80/ 10/ 14   N/A     2/ 5   2/ 5
PANAMA CITY BEAC           76 87   60/  4/  6 1015.1F
TOWER C                    82     140/ 16/ 17 1014.2F

$$
FLZ011-016>038-118-127-128-134-139-239-231000-
NORTH FLORIDA
  
CITY           SKY/WX    TMP DP  RH WIND       PRES   REMARKS
MARIANNA       FAIR      73  71  93 NE3       29.98F                  
TALLAHASSEE    FAIR      75  72  90 NE3       29.98F                  
PERRY          FAIR      74  72  92 CALM      29.99F                  
LIVE OAK       CLEAR     72  72 100 CALM      30.00S                  
CROSS CITY     FAIR      73  72  96 NE3       29.99S                  
LAKE CITY      FAIR      70  68  94 CALM      30.00F                  
GAINESVILLE    FAIR      72  68  87 CALM      30.01F                  
PALATKA        MOCLDY    68  68 100 CALM      30.00F                  
MAYPORT NAS    FAIR      78  71  79 CALM      30.00F                  
JACKSONVILLE   FAIR      72  71  97 CALM      30.00S                  
JAX NAS        FAIR      80  73  79 CALM      30.01S                  
JAX CECIL      FAIR      68  66  94 CALM      30.00S                  
ST AUGUSTINE   FAIR      73  70  88 CALM      30.00F                  
PALM COAST     FAIR      72  70  95 CALM      29.99F                  

STATION/POSITION SKY/WX   TEMP    WIND        PRES    WAVE   SWELL
                          AIR SEA DIR/SP/G            HT/PER HT/PER
                          (F)     (DEG/KT/KT) (MB)    (FT/S) (FT/S)
SHELL POINT      NOT AVBL
KEATON BEACH               74      70/  5/  6 1015.4F
CEDAR KEY                  79     110/ 11/ 12 1015.2F
FERNANDINA                 79 85              1016.8F
30.7N   81.3W                 85                N/A     3/ 9   2/11
MAYPORT                    79 85  210/  2/  3 1016.4F
31.4N   80.9W              80 84  140/ 12/ 16 1016.2F   3/11   2/11
ST AUGUSTINE               82 83  130/  7/  9 1015.9F

$$
FLZ040-043>046-052-053-057-058-063-144-231000-
INTERIOR CENTRAL FLORIDA
  
CITY           SKY/WX    TMP DP  RH WIND       PRES   REMARKS
OCALA          FAIR      71  70  96 N3        29.99F                  
LEESBURG       FAIR      74  73  97 NE6       29.99F                  
SANFORD        FAIR      74  73  97 CALM      29.97F                  
ORLANDO EXEC   FAIR      78  74  87 CALM      29.98S                  
ORLANDO INTL   MOCLDY    75  74  96 N6        29.97F                  
KISSIMMEE      FAIR      76  74  93 E3        29.98F                  
WINTER HAVEN   FAIR      77  74  90 E5        29.98F                  
BARTOW           N/A     75 N/A N/A CALM      29.97F                  
SEBRING        FAIR      75  73  92 CALM      29.96S                  
OKEECHOBEE     FAIR      72  72 100 NE3       29.95F                  

$$
FLZ041-047-054-059-064-141-147-231000-
EAST CENTRAL FLORIDA
  
CITY           SKY/WX    TMP DP  RH WIND       PRES   REMARKS
DAYTONA BEACH  FAIR      74  73  97 CALM      29.98S                  
DELAND         FAIR      72  70  94 CALM      29.98S                  
JFK SPACE CTR  FAIR      76  71  83 SE5       29.97S                  
CAPE CANAVERAL FAIR      79  71  78 E6        29.96S                  
PATRICK AFB    FAIR      81  75  80 E9        29.96S                  
MELBOURNE      MOCLDY    80  73  79 S10       29.96S                  
VERO BEACH     FAIR      76  74  93 CALM      29.95F                  
FT PIERCE      MOCLDY    75  74  96 NE3       29.95F                  
STUART         FAIR      77  73  88 CALM      29.96F                  

STATION/POSITION SKY/WX   TEMP    WIND        PRES    WAVE   SWELL
                          AIR SEA DIR/SP/G            HT/PER HT/PER
                          (F)     (DEG/KT/KT) (MB)    (FT/S) (FT/S)
28.5N   80.2W              82      90/ 10/ 14 1015.1F   4/11   3/11
28.9N   78.5W              82 85   70/  8/ 12 1015.5F
TRIDENT PIER               80 85   70/  7/ 11 1016.5R
28.4N   80.5W                 85                N/A     2/11   2/11
27.5N   80.2W                 84                N/A     4/11   2/11

$$
FLZ050-056-061-142-242-148-248-149-249-151-251-155-255-
160-260-231000-
WEST CENTRAL FLORIDA
  
CITY           SKY/WX    TMP DP  RH WIND       PRES   REMARKS
CRYSTAL RIVER  FAIR      72  70  94 CALM      29.98S                  
BROOKSVILLE    FAIR      72  70  93 E3        29.98F                  
CLEARWATER AIR FAIR      75  72  88 E3        29.95F                  
ST PETE CLEARW FAIR      78  74  87 E6        29.95F                  
TAMPA INTL     FAIR      79  73  82 NE5       29.96F                  
TAMPA EXEC     FAIR      72  72 100 CALM      29.97F FOG              
PLANT CITY     FAIR      75  73  94 CALM      29.99S                  
MACDILL AFB    FAIR      77  73  88 E7        29.95F                  
PETER O KNIGHT   N/A    N/A N/A N/A NE5       29.96F                  
ST PETERSBURG  FAIR      80  75  84 E10       29.94F                  
SARASOTA       FAIR      75  75 100 E6        29.93F                  
VENICE         FAIR      77  77 100 E9        29.95S                  

STATION/POSITION SKY/WX   TEMP    WIND        PRES    WAVE   SWELL
                          AIR SEA DIR/SP/G            HT/PER HT/PER
                          (F)     (DEG/KT/KT) (MB)    (FT/S) (FT/S)
CLEARWATER BEACH           78 88   70/  6/  8 1014.5F
MIDDLE TAMPA BAY           78     100/ 10/ 12 1014.4F
VENICE                     76 85   70/  7/  9   N/A

$$
FLZ066-069-070-075>078-162-262-165-265-231000-
SOUTHWEST FLORIDA AND KEYS
  
CITY           SKY/WX    TMP DP  RH WIND       PRES   REMARKS
PUNTA GORDA    FAIR      76  74  93 NE5       29.96F                  
FT MYERS       FAIR      75  75 100 E3        29.93F                  
SOUTHWEST INTL FAIR      76  75  97 E3        29.94F                  
NAPLES         FAIR      76  74  93 NE3       29.93F                  
MARCO ISLAND   FAIR      76  75  97 MISG      29.94F                  
IMMOKALEE        N/A     73  73 100 CALM      29.94S                  
MARATHON       FAIR      83  74  74 E6        29.91F                  
KEY WEST NAS   FAIR      82  74  76 E8        29.92R                  
KEY WEST INTL  FAIR      85  75  72 E9        29.92S                  

STATION/POSITION SKY/WX   TEMP    WIND        PRES    WAVE   SWELL
                          AIR SEA DIR/SP/G            HT/PER HT/PER
                          (F)     (DEG/KT/KT) (MB)    (FT/S) (FT/S)
NAPLES                     77 86   80/  3/  4 1013.5F
26.0N   85.6W              83 85  110/  6/  8 1013.0
DRY TORTUGAS               83     110/  9/ 10 1012.8F
SAND KEY                   83                 1012.9F
SOMBRERO KEY               83                 1012.2F
LONG KEY                   84 87  120/  8/ 10 1012.8F
MOLASSES REEF              82 86  180/  4/  7 1013.5

$$
FLZ067-068-071>074-168-172>174-231000-
SOUTHEAST FLORIDA 
  
CITY           SKY/WX    TMP DP  RH WIND       PRES   REMARKS
W PALM BEACH   FAIR      77  75  93 W3        29.95S                  
FT LAUDER-EXEC FAIR      78  75  90 CALM      29.94S                  
FT LAUDERDALE  FAIR      80  75  84 NE3       29.93S                  
POMPANO BEACH  FAIR      81  73  76 E5        29.94S                  
PEMBROKE PINES FAIR      79  74  84 N3        29.95S                  
OPA LOCKA      FAIR      78  75  90 NE3       29.93F                  
MIAMI          FAIR      80  76  87 NE3       29.93S                  
WEST KENDALL   FAIR      79  75  87 NE5       29.92F                  
HOMESTEAD      MOCLDY    81  75  83 CALM      29.91F                  

STATION/POSITION SKY/WX   TEMP    WIND        PRES    WAVE   SWELL
                          AIR SEA DIR/SP/G            HT/PER HT/PER
                          (F)     (DEG/KT/KT) (MB)    (FT/S) (FT/S)
PORT EVERGLADES            83      80/  5/  8 1013.6F
VIRGINIA KEY               84 88   70/  6/  7 1013.1F
LAKE WORTH                 82 86  100/  4/  6 1014.9F
FOWEY ROCKS                83 85   80/  8/  9 1014.0S
SETTLEMENT POINT           81     160/  3/  3 1014.1R

$$